This demonstration page uses our WeatherBlox Daily Observations layout. Learn more.

Left ArrowRight Arrow

39.01783, -85.05884

Hourly Observations for July 2, 2022

Temp ( °F °C ) Dew Point ( °F °C ) Humidity (%) Winds ( mph kmh ) Pressure ( in mb ) Visibility ( mi km ) Precip ( " mm )
12:52 am 00:52 Cloudy 76 24.4 67 19.4 74 74 Calm 29.94 1014 10 16 0.00 0.00
1:52 am 01:52 Mostly Cloudy 76 24.4 67 19.4 74 74 Calm 29.93 1014 10 16 0.00 0.00
2:52 am 02:52 Mostly Cloudy 75 23.9 67 19.4 76 76 Calm 29.93 1014 10 16 0.00 0.00
3:52 am 03:52 Mostly Cloudy 74 23.3 67 19.4 79 79 NW 14 22 29.93 1013 10 16 0.00 0.00
4:52 am 04:52 Mostly Cloudy 73 22.8 67 19.4 81 81 Calm 29.94 1014 10 16 0.00 0.00
5:52 am 05:52 Mostly Cloudy with Thunderstorms 72 22.2 68 20 87 87 NNW 8 13 29.94 1014 10 16 0.00 0.00
6:17 am 06:17 Cloudy with Strong Thunderstorms 71 21.7 70 21.1 96 96 NW 20 31 29.98 1015 2 3 0.01 0.25
6:24 am 06:24 Cloudy with Thunderstorms 71 21.7 70 21.1 96 96 W 12 19 29.99 1016 2 3 0.15 3.81
6:52 am 06:52 Cloudy with Thunderstorms 71 21.7 70 21.1 96 96 NE 6 9 29.97 1015 2 3 0.23 5.84
7:16 am 07:16 Cloudy with Light Rain 71 21.7 71 21.7 100 100 NNE 7 11 29.97 1015 3 5 0.01 0.25
7:52 am 07:52 Cloudy with Light Rain 72 22.2 71 21.7 97 97 NNE 5 7 29.97 1015 5 8 0.04 1.02
8:52 am 08:52 Mostly Cloudy with Mist and Fog 75 23.9 71 21.7 88 88 NE 5 7 29.98 1015 6 10 0.00 0.00
9:52 am 09:52 Mostly Cloudy with Mist and Fog 75 23.9 72 22.2 90 90 NNW 7 11 29.99 1016 5 8 0.00 0.00
10:52 am 10:52 Mostly Cloudy with Haze 78 25.6 73 22.8 85 85 N 3 6 29.99 1016 6 10 0.00 0.00
11:52 am 11:52 Mostly Cloudy 80 26.7 71 21.7 74 74 VRB 5 7 30.00 1016 8 13 0.00 0.00
12:52 pm 12:52 Mostly Cloudy 83 28.3 72 22.2 70 70 N 8 13 30.00 1016 9 14 0.00 0.00
1:52 pm 13:52 Mostly Cloudy 83 28.3 71 21.7 67 67 NW 7 11 30.00 1016 8 13 0.00 0.00
2:52 pm 14:52 Mostly Cloudy 84 28.9 72 22.2 67 67 W 7 11 29.98 1015 9 14 0.00 0.00
3:52 pm 15:52 Mostly Cloudy 86 30 68 20 55 55 N 9 15 29.97 1015 10 16 0.00 0.00
4:52 pm 16:52 Partly Cloudy 85 29.4 67 19.4 55 55 N 12 19 29.96 1015 10 16 0.00 0.00
5:52 pm 17:52 Partly Cloudy 85 29.4 65 18.3 51 51 NNW 7 11 29.98 1015 10 16 0.00 0.00
6:52 pm 18:52 Mostly Cloudy 86 30 64 17.8 48 48 NNW 9 15 29.96 1014 10 16 0.00 0.00
7:52 pm 19:52 Cloudy 83 28.3 65 18.3 55 55 N 6 9 29.96 1015 10 16 0.00 0.00
8:52 pm 20:52 Mostly Cloudy 81 27.2 66 18.9 61 61 NNW 6 9 29.96 1015 10 16 0.00 0.00
9:52 pm 21:52 Cloudy 80 26.7 66 18.9 62 62 NW 8 13 29.98 1015 8 13 0.00 0.00
10:52 pm 22:52 Cloudy 79 26.1 65 18.3 62 62 NNW 8 13 30.01 1016 10 16 0.00 0.00
11:52 pm 23:52 Cloudy with Light Rain 77 25 65 18.3 66 66 N 5 7 30.01 1016 10 16 0.00 0.00

Powered by AerisWeather